Regional Weather Roundup
Issued by NWS

Home | Current Version | Previous Version | Graphics & Text | Print | Product List | Glossary On
Versions: 1 2 3 4 5 6 7 8 9 10 11 12 13 14 15 16 17 18 19 20 21 22 23 24 25 26 27 28 29 30 31 32 33 34 35 36 37 38 39 40 41 42 43 44 45 46 47 48 49 50
000
ASUS43 KLMK 050010
RWRKY
KENTUCKY REGIONAL WEATHER ROUNDUP
NATIONAL WEATHER SERVICE LOUISVILLE KY
800 PM EDT MON MAY 04 2015

NOTE "FAIR" INDICATES FEW OR NO CLOUDS BELOW 12,000 FEET
WITH NO SIGNIFICANT WEATHER AND/OR OBSTRUCTIONS TO VISIBILITY.

KYZ001>023-026-027-061>063-070>075-050100-
WESTERN AND SOUTH CENTRAL KENTUCKY

CITY           SKY/WX    TMP DP  RH WIND       PRES   REMARKS
PADUCAH        CLEAR     80  54  40 S6        30.12S
HENDERSON      PTCLDY    81  54  39 S10       30.12S
OWENSBORO      MOCLDY    78  62  57 SW6       30.15S
HOPKINSVILLE   CLEAR     79  55  42 S6        30.16F
BOWLING GREEN  MOCLDY    80  55  42 SW8       30.18S
GLASGOW        PTCLDY    75  54  48 CALM      30.19S
$$

KYZ024-025-028>034-038-045-046-053-050100-
NORTH CENTRAL KENTUCKY

CITY           SKY/WX    TMP DP  RH WIND       PRES   REMARKS
LOUISVILLE/SDF MOCLDY    80  55  42 SW7       30.15S
LOUISVILLE/LOU MOCLDY    79  55  43 SW3       30.16S
FORT KNOX      CLOUDY    75  58  54 S5        30.15S
$$

KYZ035>037-039>044-047>052-055>060-089>105-050100-
NORTHEAST KENTUCKY

CITY           SKY/WX    TMP DP  RH WIND       PRES   REMARKS
LEXINGTON      PTCLDY    73  56  54 SW6       30.19S
COVINGTON      MOCLDY    77  56  48 CALM      30.17R
FRANKFORT      MOCLDY    77  55  46 S7        30.16S
$$

KYZ054-064>069-076>088-106>120-050100-
SOUTHEAST KENTUCKY

CITY           SKY/WX    TMP DP  RH WIND       PRES   REMARKS
JACKSON        CLEAR     76  46  34 W3        30.22S
LONDON         CLEAR     78  46  32 NW5       30.21S
SOMERSET       PTCLDY    73  46  38 W5        30.22S
MIDDLESBORO    CLEAR     75  51  42 S3        30.23S
MONTICELLO     CLEAR     77  52  41 CALM      30.24S
$$




USA.gov is the U.S. government's official web portal to all federal, state and local government web resources and services.